This is the latest recevied weather packets stored in our database for station/object W7TTE. If no packets are shown the sender has not sent any weather packets the latest 1 day(s).
| Time | Temp. | Humidity | Pressure | Rain* | Wind** | Luminosity | Snow |
|---|---|---|---|---|---|---|---|
| 1778005464 | 24.44° C | 33% | 1014.2 hPa | 0 mm | 0.89 m/s, 235° | 809 W/m² | - |
| 1778005160 | 23.89° C | 34% | 1014.3 hPa | 0 mm | 0.89 m/s, 197° | 790 W/m² | - |
| 1778004858 | 23.89° C | 34% | 1014.3 hPa | 0 mm | 1.79 m/s, 205° | 217 W/m² | - |
| 1778004554 | 23.89° C | 34% | 1014.5 hPa | 0 mm | 1.79 m/s, 195° | 773 W/m² | - |
| 1778004251 | 23.33° C | 34% | 1014.2 hPa | 0 mm | 0.45 m/s, 180° | 752 W/m² | - |
| 1778003948 | 23.33° C | 34% | 1014.6 hPa | 0 mm | 1.34 m/s, 183° | 757 W/m² | - |
| 1778003644 | 23.33° C | 35% | 1014.5 hPa | 0 mm | 1.79 m/s, 194° | 740 W/m² | - |
| 1778003340 | 23.33° C | 35% | 1014.6 hPa | 0 mm | 2.24 m/s, 233° | 732 W/m² | - |
| 1778003038 | 22.78° C | 35% | 1014.3 hPa | 0 mm | 1.79 m/s, 196° | 719 W/m² | - |
| 1778002734 | 22.78° C | 34% | 1014.5 hPa | 0 mm | 2.24 m/s, 235° | 711 W/m² | - |
| 1778002430 | 23.33° C | 34% | 1014.3 hPa | 0 mm | 1.34 m/s, 186° | 700 W/m² | - |
| 1778002127 | 23.33° C | 33% | 1014.3 hPa | 0 mm | 2.68 m/s, 219° | 692 W/m² | - |
| 1778001825 | 22.22° C | 34% | 1014.4 hPa | 0 mm | 1.79 m/s, 186° | 678 W/m² | - |
| 1778001524 | 22.78° C | 35% | 1014.3 hPa | 0 mm | 1.34 m/s, 197° | 667 W/m² | - |
| 1778001222 | 22.22° C | 36% | 1014.3 hPa | 0 mm | 0.89 m/s, 203° | 671 W/m² | - |
| 1778000918 | 21.67° C | 37% | 1014.3 hPa | 0 mm | 0.89 m/s, 205° | 732 W/m² | - |
| 1778000615 | 21.67° C | 39% | 1014.3 hPa | 0 mm | 1.79 m/s, 138° | 337 W/m² | - |
| 1778000310 | 22.22° C | 37% | 1014.2 hPa | 0 mm | 0.45 m/s, 179° | 358 W/m² | - |
| 1778000006 | 21.67° C | 37% | 1014.3 hPa | 0 mm | 0.89 m/s, 207° | 401 W/m² | - |
| 1777999702 | 21.67° C | 38% | 1014.3 hPa | 0 mm | 1.79 m/s, 123° | 671 W/m² | - |
| 1777999399 | 21.67° C | 39% | 1014.2 hPa | 0 mm | 0.89 m/s, 192° | 312 W/m² | - |
| 1777999097 | 21.67° C | 39% | 1014.3 hPa | 0 mm | 0.45 m/s, 206° | 184 W/m² | - |
| 1777998796 | 21.67° C | 41% | 1014.4 hPa | 0 mm | 1.34 m/s, 215° | 277 W/m² | - |
| 1777998494 | 21.11° C | 40% | 1014.5 hPa | 0 mm | 0.45 m/s, 170° | 566 W/m² | - |
| 1777998189 | 20.56° C | 41% | 1014.4 hPa | 0 mm | 0.89 m/s, 163° | 167 W/m² | - |
* Rain latest hour (hover to see other rain measurements)
** Current wind speed in m/s (hover to see current wind gust speed)